DELTA 1 DEB, 40757

Orbit data source: Space-Track

DELTA 1 DEB, 40757 is space debris in SSO originally from a launch on Thu, 29 Jul 1976 UTC launched from the Air Force Western Test Range (AFWTR). Debris objects in space refer to the collection of defunct objects orbiting the Earth. Examples of debris include non-operational satellites, rocket bodies, and fragments generated from explosions, collisions, or faulty payload assembly.

Loading next visibility...
Identifier
40757, 1976-077GA
Orbit
SSO
Country
Flag of USUS
Related business
Manufacturer
Unknown
Mission
Spacecraft
Bus & Motor
Unknown
Mass
Unknown
Launch date (UTC)
1976-07-29 (50 years ago)
Launch vehicle
Unknown
Launch site
Air Force Western Test Range (AFWTR)
Object type
Payload
Rocket body
Debris
Shape & HBR
Unknown shape, 0.1 m
Radar Cross Section
Medium (>0.1 m² and <1 m²)

Expand to show TLE details & history
Last TLE update: 8 hours ago

TLE from 8 hours ago
0 DELTA 1 DEB
1 40757U 76077GA  26256.13591511  .00000011  00000-0  35185-3 0  9994
2 40757 101.9209 230.7717 0004845 347.3407  12.7543 12.54852757587832
Epoch: 2026-09-13T03:15Z
TLE epoch observation values (Epoch: 2026-09-13T03:15:43.065Z)
Latitude
-0.00002°
Longitude
-170.29264°
Altitude
1,443.138 km
Speed
7.142 km/s
True Right ascension
15h 23m 05s
True Declination
0° 00' 00"
Sunlit
Object was in daylight at epoch
Visualization orbit readout
Latitude
Unknown
Longitude
Unknown
Altitude
Unknown
Speed
Unknown
Apparent Right ascension
Unknown
Apparent Declination
Unknown
Sunlit
N/A
Visualization observer readout
Local Sidereal Time
04:04:02
Azimuth
Unknown
Elevation
Unknown
Doppler factor
Unknown
Orbital elements
Apogee altitude
1,445.602 km
Perigee altitude
1,438.024 km
Semi-major axis
7,819.95 km
Eccentricity
0.00048
Inclination
101.9209°
RAAN
230.7717°
Arg. of periapsis
347.3407°
True anomaly
12.76656°
Mean anomaly
12.7543°
Eccentric anomaly
12.76043°
Mean motion
3.13861 °/min
Orbital period
114.7 mins
BSTAR
0.00035185
Loading maneuver chart data...
Computing Atmospheric mass density...
Loading historical data...
Loading historical data...
Loading historical data...
Loading historical data...
Loading historical data...
Loading historical data...
Loading historical data...

Documentation

Showing up to 5 results
|